This is the latest recevied weather packets stored in our database for station/object OK2ILA-13. If no packets are shown the sender has not sent any weather packets the latest 10 day(s).
| Time | Temp. | Humidity | Pressure | Rain* | Wind** | Luminosity | Snow |
|---|---|---|---|---|---|---|---|
| 1777098434 | 7.78° C | 74% | 1014.9 hPa | - | - | - | - |
| 1777097835 | 7.78° C | 74% | 1014.9 hPa | - | - | - | - |
| 1777097237 | 7.22° C | 78% | 1014.9 hPa | - | - | - | - |
| 1777096636 | 6.11° C | 81% | 1014.8 hPa | - | - | - | - |
| 1777096491 | 5.56° C | 82% | 1014.8 hPa | - | - | - | - |
| 1777095891 | 5° C | 84% | 1014.8 hPa | - | - | - | - |
| 1777095291 | 4.44° C | 85% | 1014.7 hPa | - | - | - | - |
| 1777094692 | 4.44° C | 86% | 1014.9 hPa | - | - | - | - |
| 1777094092 | 3.89° C | 88% | 1014.9 hPa | - | - | - | - |
| 1777093492 | 3.33° C | 89% | 1014.9 hPa | - | - | - | - |
| 1777092892 | 3.33° C | 89% | 1014.9 hPa | - | - | - | - |
| 1777092293 | 3.33° C | 89% | 1014.9 hPa | - | - | - | - |
| 1777091694 | 2.78° C | 89% | 1014.8 hPa | - | - | - | - |
| 1777091094 | 2.22° C | 89% | 1015 hPa | - | - | - | - |
| 1777090496 | 2.22° C | 89% | 1015 hPa | - | - | - | - |
| 1777089895 | 2.22° C | 89% | 1015 hPa | - | - | - | - |
| 1777089296 | 1.67° C | 89% | 1015 hPa | - | - | - | - |
| 1777088696 | 1.67° C | 89% | 1015.1 hPa | - | - | - | - |
| 1777088096 | 1.11° C | 89% | 1015.1 hPa | - | - | - | - |
| 1777087497 | 0.56° C | 89% | 1015.2 hPa | - | - | - | - |
| 1777086899 | 0° C | 89% | 1015.4 hPa | - | - | - | - |
| 1777086298 | 0° C | 88% | 1015.3 hPa | - | - | - | - |
| 1777085699 | 0.56° C | 89% | 1015.3 hPa | - | - | - | - |
| 1777085099 | 0.56° C | 88% | 1015.3 hPa | - | - | - | - |
| 1777084499 | 0° C | 88% | 1015.3 hPa | - | - | - | - |
* Rain since midnight (hover to see other rain measurements)
** Current wind speed in m/s (hover to see current wind gust speed)